North Bend, OR

12:14 AM PDT on April 20, 2018 (GMT -0700)
North Bend Municipal

Weather History for KOTH - September, 2013

Change the Weather History Date:

Friday, September 13, 2013

  Actual Average Record
Temperature  
Mean Temperature 63 °F 58 °F  
Max Temperature 66 °F 65 °F 90 °F (1967)
Min Temperature 59 °F 51 °F 32 °F (1921)
Degree Days  
Heating Degree Days 2 7  
Month to date heating degree days 23 86  
Since 1 July heating degree days 190 465  
Cooling Degree Days 0 0  
Month to date cooling degree days 1 0  
Year to date cooling degree days 13 1  
Growing Degree Days 12 (Base 50)    
Moisture  
Dew Point 59 °F    
Average Humidity 91    
Maximum Humidity 100    
Minimum Humidity 84    
Precipitation  
Precipitation 0.00 in 0.05 in 1.15 in (1968)
Month to date precipitation 0.46 0.52  
Year to date precipitation 18.39 37.76  
Sea Level Pressure  
Sea Level Pressure 29.95 in    
Wind  
Wind Speed 8 mph (NNE)    
Max Wind Speed 17 mph    
Max Gust Speed 22 mph    
Visibility 9 miles    
Events      
T = Trace of Precipitation, MM = Missing Value Source: NWS Daily Summary

Daily Weather History Graph

Daily Weather History Graph

Search for Another Location

Airport or City:

Astronomy

Sep. 13, 2013 Rise Set
Actual Time 6:54 AM PDT 7:30 PM PDT
Civil Twilight 6:25 AM PDT 7:58 PM PDT
Nautical Twilight 5:51 AM PDT 8:32 PM PDT
Astronomical Twilight 5:16 AM PDT 9:07 PM PDT
Moon 3:32 PM PDT (9/13) 12:22 AM PDT (9/13)
Length of Visible Light 13h 32m
Length of Day
12h 35m
Waxing Gibbous, 62% of the Moon is Illuminated
Sep 13
Waxing Gibbous
Sep 19
Full
Sep 26
Last Quarter
Oct 4
New
Oct 11
First Quarter

Hourly Weather History & Observations

Time (PDT) Temp. Dew Point Humidity Pressure Visibility Wind Dir Wind Speed Gust Speed Precip Events Conditions
12:15 AM 60.8 °F 59.0 °F 94% 30.01 in 10.0 mi North 6.9 mph - N/A   Overcast
12:35 AM 59.0 °F 59.0 °F 100% 30.01 in 8.0 mi North 4.6 mph - N/A   Overcast
12:55 AM 59.0 °F 59.0 °F 100% 30.01 in 8.0 mi North 3.5 mph - N/A   Overcast
1:15 AM 59.0 °F 59.0 °F 100% 30.01 in 5.0 mi North 4.6 mph - N/A   Overcast
1:35 AM 59.0 °F 59.0 °F 100% 30.01 in 5.0 mi North 3.5 mph - N/A   Overcast
1:55 AM 59.0 °F 57.2 °F 94% 30.01 in 5.0 mi North 3.5 mph - N/A   Overcast
2:15 AM 59.0 °F 59.0 °F 100% 30.01 in 9.0 mi North 4.6 mph - N/A   Overcast
2:35 AM 59.0 °F 59.0 °F 100% 30.01 in 10.0 mi North 3.5 mph - N/A   Overcast
2:55 AM 60.8 °F 59.0 °F 94% 30.00 in 10.0 mi North 4.6 mph - N/A   Overcast
3:15 AM 59.0 °F 59.0 °F 100% 30.00 in 10.0 mi NE 5.8 mph - N/A   Overcast
3:35 AM 59.0 °F 59.0 °F 100% 29.99 in 10.0 mi NE 3.5 mph - N/A   Overcast
3:55 AM 59.0 °F 59.0 °F 100% 29.99 in 10.0 mi ENE 3.5 mph - N/A   Overcast
4:15 AM 59.0 °F 59.0 °F 100% 29.99 in 10.0 mi NE 4.6 mph - N/A   Overcast
4:35 AM 59.0 °F 57.2 °F 94% 29.99 in 8.0 mi NE 3.5 mph - N/A   Overcast
4:55 AM 59.0 °F 57.2 °F 94% 29.99 in 10.0 mi NE 5.8 mph - N/A   Overcast
5:15 AM 59.0 °F 59.0 °F 100% 29.99 in 10.0 mi ENE 3.5 mph - N/A   Overcast
5:35 AM 59.0 °F 57.2 °F 94% 29.99 in 10.0 mi ENE 3.5 mph - N/A   Overcast
5:55 AM 59.0 °F 57.2 °F 94% 29.99 in 10.0 mi NE 3.5 mph - N/A   Overcast
6:15 AM 59.0 °F 59.0 °F 100% 29.99 in 10.0 mi Calm Calm - N/A   Overcast
6:35 AM 59.0 °F 59.0 °F 100% 29.98 in 10.0 mi Calm Calm - N/A   Overcast
6:55 AM 59.0 °F 57.2 °F 94% 29.98 in 5.0 mi East 4.6 mph - N/A   Overcast
7:15 AM 59.0 °F 57.2 °F 94% 29.98 in 5.0 mi East 4.6 mph - N/A   Overcast
7:35 AM 59.0 °F 57.2 °F 94% 29.99 in 5.0 mi ENE 5.8 mph - N/A   Overcast
7:55 AM 59.0 °F 57.2 °F 94% 29.98 in 6.0 mi East 6.9 mph - N/A   Overcast
8:15 AM 59.0 °F 57.2 °F 94% 29.98 in 6.0 mi ESE 4.6 mph - N/A   Overcast
8:35 AM 60.8 °F 59.0 °F 94% 29.98 in 10.0 mi East 3.5 mph - N/A   Overcast
8:55 AM 60.8 °F 59.0 °F 94% 29.98 in 10.0 mi Calm Calm - N/A   Overcast
9:15 AM 60.8 °F 59.0 °F 94% 29.97 in 10.0 mi ENE 3.5 mph - N/A   Overcast
9:35 AM 62.6 °F 59.0 °F 88% 29.97 in 10.0 mi NNE 5.8 mph - N/A   Overcast
9:55 AM 62.6 °F 59.0 °F 88% 29.97 in 10.0 mi NNE 10.4 mph 16.1 mph N/A   Overcast
10:15 AM 62.6 °F 59.0 °F 88% 29.97 in 10.0 mi NNE 10.4 mph - N/A   Overcast
10:35 AM 62.6 °F 59.0 °F 88% 29.97 in 10.0 mi North 6.9 mph - N/A   Overcast
10:55 AM 62.6 °F 59.0 °F 88% 29.97 in 10.0 mi North 8.1 mph - N/A   Overcast
11:15 AM 62.6 °F 59.0 °F 88% 29.97 in 10.0 mi North 9.2 mph - N/A   Overcast
11:35 AM 62.6 °F 59.0 °F 88% 29.97 in 10.0 mi North 8.1 mph - N/A   Overcast
11:55 AM 62.6 °F 59.0 °F 88% 29.96 in 10.0 mi North 9.2 mph - N/A   Overcast
12:15 PM 62.6 °F 59.0 °F 88% 29.96 in 10.0 mi North 10.4 mph - N/A   Overcast
12:35 PM 64.4 °F 59.0 °F 83% 29.95 in 10.0 mi North 10.4 mph - N/A   Overcast
12:55 PM 64.4 °F 59.0 °F 83% 29.95 in 10.0 mi North 11.5 mph - N/A   Overcast
1:15 PM 64.4 °F 59.0 °F 83% 29.94 in 10.0 mi North 11.5 mph - N/A   Overcast
1:35 PM 64.4 °F 59.0 °F 83% 29.94 in 10.0 mi North 11.5 mph - N/A   Overcast
1:55 PM 64.4 °F 59.0 °F 83% 29.94 in 10.0 mi North 13.8 mph - N/A   Overcast
2:15 PM 64.4 °F 59.0 °F 83% 29.94 in 10.0 mi North 13.8 mph - N/A   Overcast
2:35 PM 64.4 °F 60.8 °F 88% 29.93 in 10.0 mi North 16.1 mph 19.6 mph N/A   Overcast
2:55 PM 64.4 °F 60.8 °F 88% 29.93 in 10.0 mi North 17.3 mph - N/A   Overcast
3:15 PM 64.4 °F 59.0 °F 83% 29.93 in 10.0 mi North 16.1 mph 19.6 mph N/A   Overcast
3:35 PM 64.4 °F 59.0 °F 83% 29.92 in 10.0 mi North 16.1 mph - N/A   Overcast
3:55 PM 64.4 °F 59.0 °F 83% 29.92 in 10.0 mi North 13.8 mph 21.9 mph N/A   Overcast
4:15 PM 64.4 °F 59.0 °F 83% 29.91 in 10.0 mi North 16.1 mph 23.0 mph N/A   Overcast
4:35 PM 64.4 °F 59.0 °F 83% 29.91 in 10.0 mi North 16.1 mph 21.9 mph N/A   Overcast
4:55 PM 64.4 °F 59.0 °F 83% 29.91 in 10.0 mi North 15.0 mph 19.6 mph N/A   Overcast
5:15 PM 64.4 °F 59.0 °F 83% 29.90 in 10.0 mi North 17.3 mph - N/A   Mostly Cloudy
5:35 PM 64.4 °F 59.0 °F 83% 29.90 in 10.0 mi North 15.0 mph - N/A   Mostly Cloudy
5:55 PM 62.6 °F 59.0 °F 88% 29.89 in 10.0 mi North 13.8 mph - N/A   Overcast
6:15 PM 62.6 °F 59.0 °F 88% 29.89 in 10.0 mi North 13.8 mph 19.6 mph N/A   Overcast
6:35 PM 62.6 °F 59.0 °F 88% 29.89 in 10.0 mi North 11.5 mph - N/A   Overcast
6:55 PM 62.6 °F 59.0 °F 88% 29.89 in 10.0 mi North 9.2 mph - N/A   Overcast
7:15 PM 62.6 °F 59.0 °F 88% 29.88 in 10.0 mi North 13.8 mph - N/A   Overcast
7:35 PM 62.6 °F 59.0 °F 88% 29.88 in 10.0 mi North 13.8 mph - N/A   Overcast
7:55 PM 62.6 °F 59.0 °F 88% 29.88 in 10.0 mi North 8.1 mph - N/A   Overcast
8:15 PM 62.6 °F 59.0 °F 88% 29.89 in 10.0 mi North 10.4 mph 17.3 mph N/A   Overcast
8:35 PM 62.6 °F 60.8 °F 94% 29.89 in 10.0 mi NNE 12.7 mph 16.1 mph N/A   Overcast
8:55 PM 62.6 °F 60.8 °F 94% 29.89 in 10.0 mi NNE 9.2 mph - N/A   Overcast
9:15 PM 62.6 °F 59.0 °F 88% 29.89 in 10.0 mi NNE 11.5 mph - N/A   Overcast
9:35 PM 62.6 °F 59.0 °F 88% 29.89 in 10.0 mi NNE 9.2 mph - N/A   Overcast
9:55 PM 62.6 °F 59.0 °F 88% 29.89 in 10.0 mi NNE 11.5 mph - N/A   Overcast
10:15 PM 62.6 °F 59.0 °F 88% 29.89 in 10.0 mi North 12.7 mph - N/A   Overcast
10:35 PM 60.8 °F 59.0 °F 94% 29.89 in 10.0 mi North 11.5 mph - N/A   Overcast
10:55 PM 60.8 °F 59.0 °F 94% 29.89 in 10.0 mi NNE 9.2 mph - N/A   Overcast
11:15 PM 62.6 °F 59.0 °F 88% 29.89 in 10.0 mi NNE 6.9 mph - N/A   Overcast
11:35 PM 60.8 °F 59.0 °F 94% 29.89 in 10.0 mi North 6.9 mph - N/A   Overcast
11:55 PM 60.8 °F 59.0 °F 94% 29.89 in 10.0 mi North 5.8 mph - N/A   Overcast